DECAYED

COSMOS 2251 DEB, 33813 (Decayed)

Orbit data source: Space-Track

COSMOS 2251 DEB, 33813 was space debris in LEO originally from a launch on Wed, 16 Jun 1993 UTC launched from the Plesetsk Missile And Space Complex (PKMTR). The debris from Iridium 33, an American commercial communications satellite, has been tracked extensively since its accidental collision with the defunct Russian satellite Cosmos 2251 in 2009. This event, occurring at high speed in low Earth orbit (LEO), generated thousands of pieces of space debris, significantly increasing the risk of further collisions. The Iridium 33 debris cloud has impacted space traffic management and orbital debris mitigation strategies, making it a subject of ongoing study in space situational awareness.

Not visible in the next 10 days
Identifier
33813, 1993-036BE
Orbit
Decayed
Country
Flag of CISCIS
Related business
Manufacturer
Unknown
Mission
Decayed spacecraft
Bus & Motor
Unknown
Mass
Unknown
Launch date (UTC)
1993-06-16 (33 years ago)
Launch vehicle
Unknown
Launch site
Plesetsk Missile And Space Complex (PKMTR)
Object type
Payload
Rocket body
Debris
Shape & HBR
Unknown shape, 0.1 m
Radar Cross Section
Small (<0.1 m²)

Expand to show TLE details & history
Last TLE update: 7 months ago

TLE from 7 months ago
0 COSMOS 2251 DEB
1 33813U 93036BE  25304.16951808  .11105239  18836-5  38500-2 0  9992
2 33813  73.9854 353.0006 0009180 336.0351  24.0472 16.25096623899300
Epoch: 2025-10-31T04:04Z
TLE epoch observation values (Epoch: 2025-10-31T04:04:06.362Z)
Latitude
Longitude
-107.74371°
Altitude
203.063 km
Speed
7.788 km/s
True Right ascension
23h 32m 00s
True Declination
0° 00' 00"
Sunlit
Object was in full shadow at epoch
Visualization orbit readout
Latitude
Unknown
Longitude
Unknown
Altitude
Unknown
Speed
Unknown
Apparent Right ascension
Unknown
Apparent Declination
Unknown
Sunlit
N/A
Visualization observer readout
Local Sidereal Time
21:44:11
Azimuth
Unknown
Elevation
Unknown
Doppler factor
Unknown
Orbital elements
Apogee altitude
209.216 km
Perigee altitude
197.132 km
Semi-major axis
6,581.311 km
Eccentricity
0.00092
Inclination
73.9854°
RAAN
353.0006°
Arg. of periapsis
336.0351°
True anomaly
24.09011°
Mean anomaly
24.0472°
Eccentric anomaly
24.06865°
Mean motion
4.06513 °/min
Orbital period
88.56 mins
BSTAR
0.00385
Loading maneuver chart data...
Computing Atmospheric mass density...
Loading historical data...
Loading historical data...
Loading historical data...
Loading historical data...
Loading historical data...
Loading historical data...
Loading historical data...

Documentation

Showing up to 5 results
|